Regional Weather Roundup
Issued by NWS

Home | Current Version | Previous Version | Graphics & Text | Print | Product List | Glossary On
Versions: 1 2 3 4 5 6 7 8 9 10 11 12 13 14 15 16 17 18 19 20 21 22 23 24 25 26 27
000
ASUS45 KSLC 251110
RWRUT

UTAH REGIONAL WEATHER ROUNDUP
NATIONAL WEATHER SERVICE SALT LAKE CITY UT
500 AM MDT WED MAY 25 2016

UTZ001>011-023>025-251200-

NORTHERN UTAH

CITY           SKY/WX    TMP DP  RH WIND       PRES   REMARKS
BRIGHAM CITY     N/A     46  41  83 N3        29.97S
HILL AFB       PTCLDY    46  39  75 E9        29.97S
LOGAN          MOCLDY    43  40  89 CALM      29.98R
OGDEN          PTCLDY    46  40  79 S9        29.96S
PROVO AIRPORT  MOCLDY    46  34  61 E6        29.99S
SALT LAKE CITY MOCLDY    53  41  63 S7        29.97R
VERNAL         CLEAR     44  33  65 CALM      30.00R
WENDOVER       MOCLDY    50  36  57 CALM      29.98R
HEBER CITY     MOCLDY    34  34 100 CALM      30.02R
WEST JORDAN    MOCLDY    48  39  71 CALM      29.98S

$$

UTZ012>022-026-027-251200-

SOUTHERN/CENTRAL UTAH

CITY           SKY/WX    TMP DP  RH WIND       PRES   REMARKS
BLANDING       PTCLDY    41  20  41 N8        30.14R
BRYCE CANYON   CLEAR     24  21  88 SW5       30.11S WCI  18
CEDAR CITY     CLEAR     43  26  51 CALM      30.02S
DELTA          MOCLDY    43  34  70 SW6       29.99S
HANKSVILLE     CLEAR     43  23  45 CALM      30.01S
MILFORD        PTCLDY    42  26  53 SW9       30.00S
MOAB/CYNLANDS  PTCLDY    53  29  39 W5        29.98R
PRICE          CLEAR     39  25  57 N7        30.02R WCI  34
ST GEORGE      MOSUNNY   55  25  30 SE9       29.97R

$$

REGIONAL REPORTS     COLORADO/ARIZONA

CITY           SKY/WX    TMP DP  RH WIND       PRES   REMARKS
CRAIG, CO      CLOUDY    44  35  70 CALM      30.05S
GRAND JUNCTION MOCLDY    49  30  48 E6        29.99R
RIFLE          MOCLDY    47  33  58 E8        30.02R
MONTROSE       PTCLDY    49  21  33 NW3       30.08R
CORTEZ         CLOUDY    53  21  28 S6        30.09R
PAGE, AZ       CLEAR     57  20  23 CALM      30.00R
GRAND CANYON   CLEAR     28  15  58 CALM      30.11R
KINGMAN        CLEAR     48  19  31 SE9       29.97S
FLAGSTAFF      CLEAR     38  18  44 SW6       30.11S WCI  33

$$

REGIONAL REPORTS    NEVADA/IDAHO/WYOMING

CITY           SKY/WX    TMP DP  RH WIND       PRES   REMARKS
LAS VEGAS, NV  PTCLDY    63  37  38 S7        29.87S
ELY            MOCLDY    31  30  96 S8        30.05R WCI  23
ELKO           CLOUDY    44  41  89 CALM      30.02R
POCATELLO, ID  CLOUDY    46  43  89 SW3       29.97R
BURLEY         CLOUDY    49  40  71 SW7       29.94R
EVANSTON, WY   CLOUDY    37  32  82 S8        30.03S WCI  31
ROCK SPRINGS   CLOUDY    38  34  85 NW3       30.02S
KEMMERER         N/A     34  32  93 CALM      30.03S

$$




USA.gov is the U.S. government's official web portal to all federal, state and local government web resources and services.